Location: Chandrammap?lem
(16.9200°N, 81.0051°E)
Time: 03:49:43
(UTC+00:00)

Cosmos 2082 - Pass Details

Date: 29 May 2024
Orbit: 834 x 853 km, 71.0° (Epoch: 17 June)

Event Time Altitude Azimuth Distance (km) Brightness Sun altitude
Exits shadow 22:40:35 29° 218° (SW) 1,513 4.5 -18.2°
Maximum altitude 22:43:27 60° 287° (WNW) 956 3.7 -17.6°
Drops below altitude 10° 22:49:01 10° 7° (N) 2,453 6.6 -16.5°
Sets 22:51:29 0° 11° (N) 3,385 7.5 -15.9°
